Hourly Data Report for May 23, 2021

WINNIPEG THE FORKS
MANITOBA
Current Station Operator: ECCC - MSC

49°53'18.008" N
97°07'46.007" W
230.00 m
5023262
71579
XWN

Download Data

Hourly Data (May 2021)
Hourly Data Report for May 23, 2021
TIME
LST
Temp Definition
°C
Dew Point Definition
°C
Rel Hum Definition
%
Precip. Amount Definition
mm

Wind Dir Definition
10's deg

Wind Spd Definition
km/h
Visibility Definition
km
Stn Press Definition
kPa
Hmdx Definition


Wind Chill Definition


Weather Definition


00:00 8.5 7.4 93 0.0 2 3   99.93     LegendNANA
01:00 8.5 7.4 93 0.0 2 6   99.88     LegendNANA
02:00 8.6 7.1 91 0.0 4 7   99.80     LegendNANA
03:00 7.9 6.1 89 0.0 5 7   99.78     LegendNANA
04:00 7.5 6.3 92 0.0 5 5   99.83     LegendNANA
05:00 7.7 6.1 89 0.0 5 5   99.85     LegendNANA
06:00 8.1 6.0 87 0.0 4 6   99.81     LegendNANA
07:00 8.3 6.2 86 0.0 5 6   99.80     LegendNANA
08:00 9.1 6.4 83 0.0 7 6   99.81     LegendNANA
09:00 9.3 7.1 86 0.0 7 8   99.74     LegendNANA
10:00 10.2 7.2 81 0.0 6 8   99.65     LegendNANA
11:00 10.7 7.3 80 0.0 7 7   99.64     LegendNANA
12:00 11.7 7.9 78 0.0 7 9   99.55     LegendNANA
13:00 12.4 8.1 75 0.0 8 9   99.46     LegendNANA
14:00 12.9 8.4 74 0.0 9 8   99.43     LegendNANA
15:00 13.1 8.6 74 0.0 8 7   99.36     LegendNANA
16:00 14.0 8.9 71 0.0 8 7   99.24     LegendNANA
17:00 13.8 8.6 71 0.0 9 5   99.22     LegendNANA
18:00 13.7 8.4 70 0.0 8 7   99.10     LegendNANA
19:00 13.0 8.0 72 0.0 8 8   98.99     LegendNANA
20:00 12.0 7.7 75 0.0 8 8   98.98     LegendNANA
21:00 11.7 7.8 77 0.0 7 6   98.98     LegendNANA
22:00 11.4 8.0 79 0.0 8 8   98.89     LegendNANA
23:00 11.2 8.1 81 0.0 9 7   98.79     LegendNANA

Notes on Data Quality.

Legend

  • E = Estimated
  • M = Missing
  • NA = Not Available*
  • [empty] = Indicates an unobserved value
Date modified: